Temp
17 17 18 18 18 18 17 16 16 17 17 16 17 17 17 17 17 17 17 17 17 17 17 16 16 16 16 16 16 15 16 16 15
17 17 18 17 17 17 17 16 15 17 17 17 17 17 17 17 17 17 17 17 17 17 17 17 16 16 16 16 15 15 15 15 15
17 17 17 17 17 17 15 15 15 16 17 17 17 17 16 16 17 17 16 16 16 16 16 16 16 16 16 16 15 15 15 15 15
17 17 17 18 18 16 15 15 15 17 17 17 17 17 16 16 16 16 17 17 16 16 16 16 15 15 15 15 15 15 15 15 15
16 17 17 17 17 15 15 15 16 17 17 17 17 16 16 16 16 17 17 17 16 16 16 15 15 15 15 15 15 15 14 15 15
16 16 17 17 17 16 15 15 16 17 17 17 16 16 16 16 17 16 16 16 16 16 15 15 15 14 15 14 14 14 15 14 14
16 16 16 16 16 16 16 16 16 17 17 17 16 16 16 16 16 16 16 16 16 15 15 15 14 14 15 14 14 14 14 14 13
16 16 16 15 15 16 16 16 16 17 17 16 16 16 16 16 16 16 16 16 15 15 15 14 14 14 14 14 14 14 14 13 13
16 16 15 15 15 16 16 16 16 16 16 16 16 16 16 16 16 15 16 16 15 15 15 14 14 14 14 14 14 15 13 13 12
15 15 16 16 16 15 15 15 16 16 16 16 16 16 16 16 15 15 16 15 15 15 14 14 14 14 14 14 13 14 13 12 12
15 15 15 16 15 15 15 15 15 16 16 16 16 16 15 15 15 15 15 15 15 15 15 14 14 14 14 13 13 13 12 12 12
15 15 15 15 14 14 14 15 15 16 16 16 16 16 15 15 15 15 15 15 15 15 14 14 14 14 14 13 13 12 12 12 12
15 15 15 15 14 14 14 14 15 16 16 16 16 16 15 15 15 14 14 15 15 15 14 14 14 14 14 13 12 12 11 11 11
15 15 14 14 14 14 14 14 15 15 15 15 15 15 15 15 15 15 14 15 15 15 14 14 14 14 14 13 12 13 11 11 10
15 14 14 14 14 14 14 14 14 14 14 15 14 14 14 14 14 14 14 14 14 15 14 14 14 14 13 13 12 12 11 11 10
15 15 14 14 14 14 14 13 13 12 13 14 12 12 12 13 13 14 14 14 14 14 14 14 14 14 13 13 13 12 11 11 10
15 15 14 14 14 14 13 14 12 12 12 12 12 11 12 12 13 13 13 14 13 14 14 14 13 13 13 13 13 13 11 11 10
15 15 15 14 14 14 14 13 14 12 12 12 13 10 12 11 12 12 13 13 13 13 13 13 13 13 13 12 12 12 12 11 10
15 15 15 14 14 14 14 13 13 14 13 11 12 13 13 9 10 11 12 13 13 13 13 13 13 13 13 12 12 12 11 11 10
15 15 15 15 14 14 14 13 13 13 14 14 12 11 11 11 10 10 11 11 12 12 12 12 12 13 13 12 12 12 12 11 10
Height
831 833 835 837 839 840 843 845 847 849 851 853 854 855 856 857 857 858 859 860 861 862 863 865 865 866 868 869 870 870 871 871 871
832 834 836 838 839 840 843 846 848 850 852 854 856 857 858 859 860 861 861 862 863 865 866 867 869 871 871 872 873 873 874 875 875
833 835 837 839 840 842 845 847 849 851 853 855 857 858 859 860 862 863 864 865 866 867 869 869 872 874 875 876 876 876 876 876 877
833 835 837 839 840 843 846 848 850 852 854 857 859 859 860 862 863 864 866 868 869 871 872 873 874 876 878 880 879 879 879 880 880
834 836 838 840 841 844 847 849 851 853 855 858 860 861 862 862 863 865 867 869 871 872 874 876 876 879 880 882 882 882 882 883 884
835 837 839 840 842 845 848 850 852 854 857 859 861 862 863 865 865 866 868 870 873 874 875 877 878 880 882 884 885 885 886 886 886
835 837 839 841 843 846 848 851 853 855 858 860 862 863 864 866 867 868 869 871 874 875 877 879 880 881 884 886 888 888 887 888 889
836 837 839 841 844 846 849 851 854 856 858 861 863 864 866 867 868 870 871 872 874 877 879 882 882 884 886 888 889 889 890 890 892
836 838 840 842 844 847 850 852 855 857 860 862 864 866 868 869 870 871 872 874 876 878 881 883 885 886 887 889 890 891 892 892 894
835 838 840 843 845 847 850 853 855 858 861 863 865 867 869 870 872 873 875 876 877 879 883 885 887 889 889 890 892 892 895 895 896
834 837 840 843 845 848 851 853 856 859 861 864 866 868 870 872 873 875 877 879 880 881 883 885 888 890 892 892 894 895 896 897 898
832 837 839 842 845 848 851 854 856 859 862 864 867 869 871 873 874 876 878 880 881 883 884 887 888 889 893 895 897 898 898 899 899
830 835 838 841 845 848 851 854 857 860 862 865 867 870 872 874 875 877 879 881 883 884 886 887 890 892 893 895 899 899 901 902 901
828 833 838 841 844 847 851 853 857 859 862 865 867 870 873 874 876 878 880 882 884 885 886 888 890 892 893 895 896 899 902 902 903
826 831 836 840 843 846 850 853 856 859 862 865 868 871 873 875 876 878 880 882 884 886 887 889 890 892 893 895 897 899 903 903 904
825 829 834 838 841 844 849 852 856 860 862 865 869 872 873 875 876 878 879 880 883 886 888 889 891 893 895 895 895 898 902 904 905
822 827 830 834 839 843 846 850 854 858 862 865 870 874 875 874 875 876 878 880 882 885 887 889 891 892 895 896 896 897 900 902 905
818 823 827 832 836 839 843 847 850 855 860 863 866 872 871 873 873 874 877 878 881 883 886 888 890 892 893 896 896 897 898 901 903
815 819 823 828 832 835 839 844 848 852 856 862 863 864 865 871 874 873 874 876 878 881 882 885 887 889 891 894 895 895 897 900 902
810 814 819 823 828 832 836 840 845 849 851 855 859 863 864 866 868 871 873 874 875 878 881 882 884 886 889 891 894 894 895 898 900
Wind_Speed
14 17 15 14 15 14 14 16 15 14 12 13 14 14 14 15 16 19 20 20 19 21 21 20 19 21 21 21 20 20 19 18 18
14 16 14 18 16 16 14 16 15 15 15 16 14 11 12 13 15 17 19 19 19 19 19 18 19 19 19 16 17 18 19 18 19
16 15 17 19 15 13 15 17 15 16 17 16 13 10 13 13 13 14 16 16 16 16 17 17 19 17 16 15 16 18 18 18 21
16 15 18 16 11 13 16 17 16 16 18 15 13 12 12 11 14 14 15 14 12 14 16 17 20 19 17 15 17 20 19 18 19
16 16 15 13 11 17 19 17 16 15 17 16 14 14 13 13 15 15 15 13 11 12 15 19 20 19 18 17 16 18 20 19 20
15 16 15 17 16 17 18 17 15 14 15 15 14 13 12 12 13 15 14 11 14 16 20 20 20 18 17 17 16 17 18 18 16
16 15 14 19 18 16 17 18 16 17 18 13 13 12 10 13 11 13 12 15 15 20 21 18 18 18 16 16 16 17 16 19 22
17 16 18 23 19 16 18 19 17 20 18 16 13 11 12 13 10 13 14 12 23 21 19 16 17 17 16 16 15 18 19 21 18
20 19 20 20 17 13 17 19 18 19 18 15 13 12 13 8 14 12 14 22 21 20 16 16 16 16 16 14 18 15 19 18 16
23 21 19 15 17 14 17 19 18 19 16 14 11 12 11 10 13 13 16 19 18 18 15 14 13 14 16 17 17 14 14 14 13
25 22 21 18 16 16 18 20 19 18 16 14 12 12 13 13 13 13 14 17 15 17 13 14 14 16 15 16 15 16 14 12 13
28 24 20 19 15 16 19 19 18 18 16 16 13 12 12 12 13 14 17 17 14 16 15 13 15 15 16 14 14 13 12 12 11
29 26 20 20 16 17 21 18 18 18 16 16 14 13 13 12 13 14 16 17 15 14 17 15 16 16 14 17 13 11 10 10 9
29 28 23 20 18 19 21 19 19 19 18 16 15 12 13 12 13 14 17 18 17 14 19 17 18 14 16 17 15 6 9 9 8
28 28 25 22 20 22 20 21 19 20 21 17 13 11 10 12 13 14 19 21 18 15 19 21 16 14 19 17 13 10 9 8 8
28 28 28 25 23 26 21 22 22 20 19 19 9 6 9 10 11 15 17 20 21 18 20 21 18 15 18 16 9 12 10 8 7
30 30 29 28 26 26 24 25 24 19 23 9 9 1 2 7 10 14 18 21 20 20 20 22 20 18 20 15 11 9 12 11 8
32 33 31 31 30 31 28 27 30 22 22 19 7 2 3 2 7 10 18 21 23 21 22 23 22 19 19 17 15 12 10 11 10
33 33 33 32 33 34 32 30 31 29 28 18 10 7 8 3 1 8 13 15 18 21 22 25 25 22 21 19 17 14 12 10 10
34 33 35 33 35 36 36 33 34 34 33 30 19 11 9 7 3 2 9 17 21 23 24 25 25 23 22 21 20 16 13 11 11
Wind_Direction
140 146 146 142 141 135 129 131 122 126 120 124 122 113 122 122 110 102 101 100 101 100 98 97 96 94 89 86 83 82 80 75 75
147 153 154 147 144 134 140 134 128 130 129 130 121 114 123 121 120 110 102 101 98 97 96 95 92 90 88 86 84 86 83 83 83
151 157 156 151 156 147 135 138 133 135 137 136 123 118 128 117 115 125 114 105 101 99 98 101 99 92 91 88 83 91 90 91 83
157 158 155 163 163 152 142 140 139 139 142 139 128 111 140 138 122 119 124 119 102 106 106 107 102 94 85 88 94 92 89 89 90
165 180 161 161 157 150 146 145 144 141 145 143 136 127 130 130 126 124 125 123 121 127 122 112 102 95 96 98 96 95 94 98 95
168 162 162 168 156 155 150 151 146 143 147 149 145 144 138 130 143 136 132 147 129 128 123 114 108 104 106 98 104 101 101 101 101
171 181 179 166 157 154 156 154 148 149 147 154 151 148 144 159 147 145 144 133 144 130 118 112 109 108 110 108 108 104 105 97 88
174 172 173 157 156 157 162 156 153 155 154 154 151 149 138 151 161 144 153 150 129 122 118 114 112 113 112 119 120 104 105 93 87
179 173 158 159 165 166 165 160 154 158 154 156 156 148 152 143 147 141 138 130 125 122 120 121 118 119 122 130 116 121 96 97 96
181 182 182 180 187 185 171 164 158 160 160 157 170 162 170 163 137 139 145 136 133 124 124 125 125 133 133 123 118 121 105 96 99
183 185 189 200 204 190 177 168 162 158 160 172 169 165 162 162 160 153 152 146 137 127 129 134 137 142 140 122 119 116 112 108 109
186 186 189 193 192 185 175 170 169 162 166 169 174 170 169 169 169 164 157 150 145 140 139 144 153 153 139 133 131 117 112 118 116
189 189 188 188 194 189 178 176 171 169 178 177 173 176 174 170 167 168 166 159 153 156 152 153 159 145 152 146 131 118 123 125 126
191 192 190 191 192 187 182 179 179 179 178 175 168 173 178 182 180 180 179 175 173 170 165 167 156 160 151 143 139 138 143 139 140
194 193 193 192 193 186 185 186 181 179 175 174 163 173 187 198 197 191 191 184 182 182 175 170 168 174 161 153 143 143 157 157 157
199 196 197 196 196 189 187 183 178 167 171 165 150 173 195 205 203 198 198 194 185 187 186 183 176 176 173 173 183 158 168 170 174
205 203 201 199 195 193 191 188 175 175 175 154 137 136 199 218 206 197 197 197 196 196 199 196 188 181 188 190 191 190 172 175 186
210 207 206 203 200 199 199 195 189 178 183 167 162 143 213 167 225 213 213 204 204 205 205 203 198 196 200 201 194 197 185 180 183
214 213 210 209 206 206 206 205 200 197 195 195 194 169 152 170 235 228 220 215 220 214 208 207 205 202 204 212 209 204 205 193 189
213 214 214 213 213 213 213 208 208 207 204 200 196 182 174 156 127 192 217 222 225 224 220 215 208 209 212 216 218 215 216 210 205